Time,TemperatureF,DewpointF,PressureIn,WindDirection,WindDirectionDegrees,WindSpeedMPH,WindSpeedGustMPH,Humidity,HourlyPrecipIn,Conditions,Clouds,dailyrainin,SoftwareType,DateUTC
2013-10-06 00:13:00,54.0,49.0,29.78,South,180,4.0,7.0,84,0.00,,,0.22,,2013-10-06 05:13:00,
2013-10-06 00:22:00,53.0,48.0,29.78,SE,135,0.0,4.0,83,0.00,,,0.22,,2013-10-06 05:22:00,
2013-10-06 00:34:00,53.0,48.0,29.78,SE,135,0.0,4.0,83,0.00,,,0.22,,2013-10-06 05:34:00,
2013-10-06 00:42:00,53.0,48.0,29.78,SE,135,0.0,4.0,83,0.00,,,0.22,,2013-10-06 05:42:00,
2013-10-06 00:52:00,53.0,48.0,29.78,SE,135,0.0,4.0,83,0.00,,,0.22,,2013-10-06 05:52:00,
2013-10-06 01:12:00,53.0,49.0,29.79,South,180,0.0,8.0,87,0.00,,,0.22,,2013-10-06 06:12:00,
2013-10-06 01:22:00,53.0,50.0,29.78,South,180,0.0,4.0,89,0.00,,,0.22,,2013-10-06 06:22:00,
2013-10-06 01:42:00,53.0,50.0,29.78,SE,135,3.0,7.0,90,0.00,,,0.22,,2013-10-06 06:42:00,
2013-10-06 01:52:00,52.0,49.0,29.78,SE,135,0.0,4.0,90,0.00,,,0.22,,2013-10-06 06:52:00,
2013-10-06 02:11:00,52.0,49.0,29.78,SE,135,3.0,6.0,91,0.00,,,0.22,,2013-10-06 07:11:00,
2013-10-06 02:22:00,52.0,49.0,29.78,SE,135,3.0,6.0,91,0.00,,,0.22,,2013-10-06 07:22:00,
2013-10-06 02:42:00,52.0,49.0,29.79,SE,135,0.0,4.0,91,0.00,,,0.22,,2013-10-06 07:42:00,
2013-10-06 02:52:00,52.0,49.0,29.79,SE,135,0.0,4.0,91,0.00,,,0.22,,2013-10-06 07:52:00,
2013-10-06 03:03:00,52.0,49.0,29.79,SE,135,0.0,4.0,91,0.00,,,0.22,,2013-10-06 08:03:00,
2013-10-06 03:11:00,52.0,49.0,29.79,SE,135,0.0,4.0,91,0.00,,,0.22,,2013-10-06 08:11:00,
2013-10-06 03:42:00,51.0,48.0,29.77,South,180,2.0,6.0,90,0.00,,,0.22,,2013-10-06 08:42:00,
2013-10-06 03:53:00,51.0,48.0,29.77,South,180,2.0,6.0,90,0.00,,,0.22,,2013-10-06 08:53:00,
2013-10-06 04:11:00,51.0,48.0,29.77,South,180,3.0,5.0,89,0.00,,,0.22,,2013-10-06 09:11:00,
2013-10-06 04:22:00,51.0,48.0,29.77,SE,135,2.0,4.0,89,0.00,,,0.22,,2013-10-06 09:22:00,
2013-10-06 04:43:00,51.0,48.0,29.77,SSE,158,0.0,3.0,90,0.00,,,0.22,,2013-10-06 09:43:00,
2013-10-06 04:53:00,51.0,48.0,29.77,SE,135,1.0,2.0,90,0.00,,,0.22,,2013-10-06 09:53:00,
2013-10-06 05:13:00,51.0,48.0,29.77,SE,135,0.0,3.0,91,0.00,,,0.22,,2013-10-06 10:13:00,
2013-10-06 05:23:00,51.0,48.0,29.77,SE,135,0.0,3.0,91,0.00,,,0.22,,2013-10-06 10:23:00,
2013-10-06 05:43:00,51.0,49.0,29.78,South,180,0.0,1.0,92,0.00,,,0.22,,2013-10-06 10:43:00,
2013-10-06 05:53:00,50.0,48.0,29.78,SE,135,0.0,1.0,92,0.00,,,0.22,,2013-10-06 10:53:00,
2013-10-06 06:12:00,50.0,48.0,29.78,SE,135,0.0,2.0,92,0.00,,,0.22,,2013-10-06 11:12:00,
2013-10-06 06:21:00,50.0,48.0,29.78,South,180,0.0,2.0,93,0.00,,,0.22,,2013-10-06 11:21:00,
2013-10-06 06:52:00,50.0,48.0,29.78,SE,135,2.0,4.0,94,0.00,,,0.22,,2013-10-06 11:52:00,
2013-10-06 07:12:00,50.0,48.0,29.78,SE,135,0.0,4.0,94,0.00,,,0.22,,2013-10-06 12:12:00,
2013-10-06 07:22:00,49.0,47.0,29.79,SE,135,0.0,1.0,94,0.00,,,0.22,,2013-10-06 12:22:00,
2013-10-06 07:32:00,49.0,47.0,29.79,SE,135,0.0,1.0,94,0.00,,,0.22,,2013-10-06 12:32:00,
2013-10-06 07:42:00,49.0,47.0,29.79,SE,135,0.0,1.0,94,0.00,,,0.22,,2013-10-06 12:42:00,
2013-10-06 07:52:00,49.0,48.0,29.79,South,180,2.0,4.0,95,0.00,,,0.22,,2013-10-06 12:52:00,
2013-10-06 08:11:00,49.0,48.0,29.79,SE,135,0.0,1.0,95,0.01,,,0.24,,2013-10-06 13:11:00,
2013-10-06 08:21:00,50.0,49.0,29.79,SE,135,2.0,4.0,96,0.01,,,0.24,,2013-10-06 13:21:00,
2013-10-06 08:42:00,51.0,50.0,29.80,SE,135,2.0,6.0,95,0.01,,,0.24,,2013-10-06 13:42:00,
2013-10-06 08:52:00,53.0,48.0,29.81,South,180,4.0,7.0,84,0.01,,,0.24,,2013-10-06 13:52:00,
2013-10-06 09:02:00,53.0,48.0,29.81,South,180,4.0,7.0,84,0.01,,,0.24,,2013-10-06 14:02:00,
2013-10-06 09:11:00,53.0,48.0,29.81,South,180,4.0,7.0,84,0.01,,,0.24,,2013-10-06 14:11:00,
2013-10-06 09:22:00,56.0,48.0,29.80,South,180,2.0,8.0,75,0.00,,,0.24,,2013-10-06 14:22:00,
2013-10-06 09:42:00,58.0,48.0,29.82,South,180,2.0,6.0,69,0.00,,,0.24,,2013-10-06 14:42:00,
2013-10-06 10:44:00,64.0,45.0,29.82,SE,135,2.0,4.0,50,0.00,,,0.24,,2013-10-06 15:44:00,
2013-10-06 11:42:00,69.0,39.0,29.82,South,180,0.0,10.0,33,0.00,,,0.24,,2013-10-06 16:42:00,
2013-10-06 19:22:00,67.0,39.0,29.74,South,180,0.0,1.0,36,0.00,,,0.24,,2013-10-07 00:22:00,
2013-10-06 19:32:00,67.0,39.0,29.74,South,180,0.0,1.0,36,0.00,,,0.24,,2013-10-07 00:32:00,
2013-10-06 19:42:00,67.0,39.0,29.74,South,180,0.0,1.0,36,0.00,,,0.24,,2013-10-07 00:42:00,
2013-10-06 19:52:00,64.0,41.0,29.75,NE,45,0.0,0.0,43,0.00,,,0.24,,2013-10-07 00:52:00,
2013-10-06 20:11:00,61.0,42.0,29.76,NE,45,0.0,0.0,49,0.00,,,0.24,,2013-10-07 01:11:00,
2013-10-06 20:22:00,61.0,42.0,29.76,NE,45,0.0,0.0,49,0.00,,,0.24,,2013-10-07 01:22:00,
2013-10-06 20:42:00,60.0,43.0,29.77,South,180,0.0,1.0,53,0.00,,,0.24,,2013-10-07 01:42:00,
2013-10-06 20:53:00,60.0,45.0,29.78,SE,135,0.0,0.0,57,0.00,,,0.19,,2013-10-07 01:53:00,
2013-10-06 21:12:00,58.0,44.0,29.78,SE,135,0.0,0.0,60,0.00,,,0.15,,2013-10-07 02:12:00,
2013-10-06 21:22:00,56.0,44.0,29.80,SE,135,0.0,0.0,64,0.00,,,0.07,,2013-10-07 02:22:00,
2013-10-06 21:42:00,56.0,45.0,29.80,NW,315,0.0,0.0,67,0.00,,,0.05,,2013-10-07 02:42:00,
2013-10-06 21:53:00,55.0,45.0,29.80,NW,315,0.0,0.0,68,0.00,,,0.04,,2013-10-07 02:53:00,
2013-10-06 22:12:00,54.0,45.0,29.81,NW,315,0.0,0.0,71,0.00,,,0.02,,2013-10-07 03:12:00,
2013-10-06 22:22:00,55.0,46.0,29.81,West,270,0.0,0.0,72,0.00,,,0.02,,2013-10-07 03:22:00,
2013-10-06 22:44:00,55.0,46.0,29.81,West,270,0.0,0.0,72,0.00,,,0.02,,2013-10-07 03:44:00,
2013-10-06 22:54:00,55.0,47.0,29.81,North,360,0.0,0.0,73,0.00,,,0.02,,2013-10-07 03:54:00,
2013-10-06 23:13:00,54.0,46.0,29.81,North,360,0.0,0.0,74,0.00,,,0.01,,2013-10-07 04:13:00,
2013-10-06 23:24:00,54.0,46.0,29.81,North,360,0.0,0.0,74,0.00,,,0.01,,2013-10-07 04:24:00,
2013-10-06 23:44:00,53.0,46.0,29.81,SE,135,0.0,0.0,76,0.00,,,0.01,,2013-10-07 04:44:00,
2013-10-06 23:53:00,53.0,46.0,29.81,East,90,0.0,0.0,77,0.00,,,0.01,,2013-10-07 04:53:00,